• In Deutschland
  • Länderverzeichnis
  • Für 7 Tage
  • Wassertemperatur
  • Satellitenkarten
  • Wetterkarte
  • Widgets
  • user-avatar
    Anmelden

    Stündliche Wetter Livingstone

    Heute, 16 November, Freitag

    Zeit Temperatur Niederschläge Wind Luftdruck Luftfeuchtigkeit
    00:00 +26°C° 0 mm 2 m/S 682 mmHg 21%
    01:00 +25°C° 0 mm 2 m/S 682 mmHg 22%
    02:00 +25°C° 0 mm 2 m/S 682 mmHg 24%
    03:00 +24°C° 0 mm 2 m/S 682 mmHg 25%
    04:00 +23°C° 0 mm 2 m/S 682 mmHg 27%
    05:00 +23°C° 0 mm 2 m/S 682 mmHg 29%
    06:00 +25°C° 0 mm 2 m/S 683 mmHg 26%
    07:00 +27°C° 0 mm 2 m/S 684 mmHg 23%
    08:00 +30°C° 0 mm 3 m/S 685 mmHg 20%
    09:00 +34°C° 0 mm 3 m/S 685 mmHg 17%
    10:00 +36°C° 0 mm 3 m/S 685 mmHg 14%
    11:00 +38°C° 0 mm 3 m/S 685 mmHg 12%
    12:00 +39°C° 0 mm 3 m/S 685 mmHg 11%
    13:00 +40°C° 0 mm 3 m/S 684 mmHg 10%
    14:00 +42°C° 0 mm 3 m/S 683 mmHg 9%
    15:00 +41°C° 0 mm 4 m/S 683 mmHg 9%
    16:00 +40°C° 0 mm 4 m/S 683 mmHg 10%
    17:00 +40°C° 0 mm 4 m/S 682 mmHg 11%
    18:00 +36°C° 0 mm 4 m/S 682 mmHg 13%
    19:00 +34°C° 0 mm 3 m/S 682 mmHg 15%
    20:00 +31°C° 0 mm 3 m/S 682 mmHg 18%
    21:00 +30°C° 0 mm 2 m/S 682 mmHg 19%
    22:00 +29°C° 0 mm 2 m/S 683 mmHg 20%
    23:00 +28°C° 0 mm 2 m/S 683 mmHg 21%

    Morgen, 17 November, Samstag

    Zeit Temperatur Niederschläge Wind Luftdruck Luftfeuchtigkeit
    00:00 +28°C° 0 mm 2 m/S 683 mmHg 22%
    01:00 +27°C° 0 mm 1 m/S 682 mmHg 24%
    02:00 +27°C° 0 mm 1 m/S 682 mmHg 25%
    03:00 +26°C° 0 mm 1 m/S 682 mmHg 27%
    04:00 +25°C° 0 mm 2 m/S 682 mmHg 29%
    05:00 +25°C° 0 mm 2 m/S 682 mmHg 31%
    06:00 +27°C° 0 mm 2 m/S 683 mmHg 29%
    07:00 +29°C° 0 mm 2 m/S 684 mmHg 27%
    08:00 +31°C° 0 mm 3 m/S 685 mmHg 25%
    09:00 +35°C° 0 mm 3 m/S 685 mmHg 22%
    10:00 +37°C° 0 mm 2 m/S 685 mmHg 19%
    11:00 +39°C° 0 mm 2 m/S 685 mmHg 16%
    12:00 +40°C° 0 mm 2 m/S 685 mmHg 15%
    13:00 +40°C° 0 mm 2 m/S 684 mmHg 13%
    14:00 +40°C° 0 mm 2 m/S 683 mmHg 12%
    15:00 +39°C° 0 mm 2 m/S 683 mmHg 12%
    16:00 +39°C° 0 mm 2 m/S 682 mmHg 13%
    17:00 +38°C° 0 mm 2 m/S 682 mmHg 13%
    18:00 +36°C° 0 mm 2 m/S 682 mmHg 15%
    19:00 +34°C° 0 mm 2 m/S 682 mmHg 18%
    20:00 +32°C° 0 mm 2 m/S 682 mmHg 20%
    21:00 +31°C° 0 mm 2 m/S 682 mmHg 22%
    22:00 +30°C° 0 mm 2 m/S 682 mmHg 24%
    23:00 +29°C° 0 mm 2 m/S 683 mmHg 26%

    übermorgen, 18 November, Sonntag

    Zeit Temperatur Niederschläge Wind Luftdruck Luftfeuchtigkeit
    00:00 +29°C° 0 mm 2 m/S 682 mmHg 27%
    01:00 +28°C° 0 mm 1 m/S 682 mmHg 29%
    02:00 +27°C° 0 mm 1 m/S 681 mmHg 31%
    03:00 +27°C° 0 mm 1 m/S 681 mmHg 32%
    04:00 +27°C° 0 mm 1 m/S 681 mmHg 33%
    05:00 +26°C° 0 mm 1 m/S 682 mmHg 35%
    06:00 +28°C° 0 mm 1 m/S 682 mmHg 32%
    07:00 +30°C° 0 mm 2 m/S 683 mmHg 29%
    08:00 +33°C° 0 mm 3 m/S 684 mmHg 27%
    09:00 +36°C° 0 mm 3 m/S 684 mmHg 23%
    10:00 +38°C° 0 mm 3 m/S 685 mmHg 20%
    11:00 +40°C° 0 mm 3 m/S 685 mmHg 16%
    12:00 +40°C° 0 mm 3 m/S 684 mmHg 15%
    13:00 +40°C° 0 mm 2 m/S 683 mmHg 15%
    14:00 +40°C° 0 mm 2 m/S 682 mmHg 14%
    15:00 +40°C° 0 mm 2 m/S 682 mmHg 14%
    16:00 +39°C° 0 mm 2 m/S 681 mmHg 15%
    17:00 +39°C° 0 mm 3 m/S 681 mmHg 15%
    18:00 +37°C° 0 mm 2 m/S 681 mmHg 18%
    19:00 +35°C° 0 mm 2 m/S 681 mmHg 20%
    20:00 +32°C° 0 mm 2 m/S 682 mmHg 23%
    21:00 +31°C° 0 mm 2 m/S 682 mmHg 25%
    22:00 +30°C° 0 mm 2 m/S 682 mmHg 27%
    23:00 +30°C° 0 mm 1 m/S 682 mmHg 29%

    19 November, Montag

    Zeit Temperatur Niederschläge Wind Luftdruck Luftfeuchtigkeit
    00:00 +29°C° 0 mm 1 m/S 682 mmHg 31%
    01:00 +28°C° 0 mm 1 m/S 682 mmHg 33%
    02:00 +27°C° 0 mm 1 m/S 681 mmHg 36%
    03:00 +27°C° 0 mm 1 m/S 681 mmHg 37%
    04:00 +27°C° 0 mm 1 m/S 681 mmHg 39%
    05:00 +26°C° 0 mm 1 m/S 682 mmHg 41%
    06:00 +28°C° 0 mm 2 m/S 683 mmHg 37%
    07:00 +30°C° 0 mm 3 m/S 683 mmHg 33%
    08:00 +33°C° 0 mm 3 m/S 684 mmHg 30%
    09:00 +35°C° 0 mm 3 m/S 685 mmHg 27%
    10:00 +37°C° 0 mm 4 m/S 685 mmHg 24%
    11:00 +40°C° 0 mm 4 m/S 685 mmHg 21%
    12:00 +40°C° 0 mm 4 m/S 684 mmHg 19%
    13:00 +41°C° 0 mm 4 m/S 683 mmHg 18%
    14:00 +41°C° 0 mm 4 m/S 682 mmHg 17%
    15:00 +40°C° 0 mm 4 m/S 682 mmHg 17%
    16:00 +40°C° 0 mm 4 m/S 681 mmHg 18%
    17:00 +40°C° 0 mm 4 m/S 681 mmHg 18%
    18:00 +37°C° 0 mm 4 m/S 681 mmHg 23%
    19:00 +35°C° 0 mm 4 m/S 682 mmHg 27%
    20:00 +33°C° 0 mm 4 m/S 682 mmHg 31%
    21:00 +31°C° 0 mm 3 m/S 682 mmHg 34%
    22:00 +30°C° 0 mm 2 m/S 682 mmHg 36%
    23:00 +29°C° 0 mm 2 m/S 682 mmHg 38%

    20 November, Dienstag

    Zeit Temperatur Niederschläge Wind Luftdruck Luftfeuchtigkeit
    00:00 +28°C° 0 mm 2 m/S 681 mmHg 39%
    01:00 +28°C° 0 mm 2 m/S 681 mmHg 39%
    02:00 +27°C° 0 mm 1 m/S 680 mmHg 40%
    03:00 +27°C° 0 mm 2 m/S 681 mmHg 41%
    04:00 +26°C° 0 mm 2 m/S 681 mmHg 41%
    05:00 +26°C° 0 mm 2 m/S 681 mmHg 42%
    06:00 +28°C° 0 mm 3 m/S 682 mmHg 39%
    07:00 +30°C° 0 mm 3 m/S 683 mmHg 36%
    08:00 +33°C° 0 mm 4 m/S 683 mmHg 33%
    09:00 +35°C° 0 mm 4 m/S 684 mmHg 29%
    10:00 +37°C° 0 mm 3 m/S 684 mmHg 25%
    11:00 +39°C° 0 mm 3 m/S 684 mmHg 20%
    12:00 +40°C° 0 mm 3 m/S 683 mmHg 18%
    13:00 +42°C° 0 mm 2 m/S 682 mmHg 16%
    14:00 +43°C° 0 mm 2 m/S 681 mmHg 14%
    15:00 +42°C° 0 mm 2 m/S 681 mmHg 15%
    16:00 +42°C° 0 mm 3 m/S 680 mmHg 16%
    17:00 +40°C° 0 mm 3 m/S 680 mmHg 17%
    18:00 +38°C° 0 mm 3 m/S 680 mmHg 20%
    19:00 +36°C° 0 mm 3 m/S 680 mmHg 23%
    20:00 +34°C° 0 mm 2 m/S 680 mmHg 25%
    21:00 +32°C° 0 mm 2 m/S 680 mmHg 26%
    22:00 +31°C° 0 mm 2 m/S 681 mmHg 27%
    23:00 +31°C° 0 mm 2 m/S 681 mmHg 28%

    21 November, Mittwoch

    Zeit Temperatur Niederschläge Wind Luftdruck Luftfeuchtigkeit
    00:00 +30°C° 0 mm 2 m/S 680 mmHg 29%
    01:00 +29°C° 0 mm 2 m/S 679 mmHg 30%
    02:00 +29°C° 0 mm 2 m/S 679 mmHg 31%
    03:00 +28°C° 0 mm 2 m/S 679 mmHg 32%
    04:00 +28°C° 0 mm 2 m/S 679 mmHg 33%
    05:00 +28°C° 0 mm 2 m/S 680 mmHg 33%
    06:00 +30°C° 0 mm 3 m/S 680 mmHg 31%
    07:00 +33°C° 0 mm 3 m/S 681 mmHg 29%
    08:00 +35°C° 0 mm 4 m/S 682 mmHg 26%
    09:00 +37°C° 0 mm 4 m/S 682 mmHg 23%
    10:00 +40°C° 0 mm 3 m/S 682 mmHg 19%
    11:00 +43°C° 0 mm 3 m/S 682 mmHg 15%
    12:00 +42°C° 0 mm 2 m/S 681 mmHg 15%
    13:00 +42°C° 0 mm 2 m/S 680 mmHg 14%
    14:00 +43°C° 0 mm 1 m/S 680 mmHg 13%
    15:00 +42°C° 0 mm 2 m/S 679 mmHg 14%
    16:00 +41°C° 0 mm 2 m/S 679 mmHg 14%
    17:00 +40°C° 0 mm 2 m/S 679 mmHg 15%
    18:00 +39°C° 0 mm 2 m/S 679 mmHg 17%
    19:00 +37°C° 0 mm 2 m/S 679 mmHg 20%
    20:00 +35°C° 0 mm 2 m/S 680 mmHg 22%
    21:00 +34°C° 0 mm 2 m/S 680 mmHg 24%
    22:00 +34°C° 0 mm 2 m/S 680 mmHg 26%
    23:00 +32°C° 0 mm 2 m/S 680 mmHg 28%
    Mehr zeigen